Notices

What's New in latest Release from April 7th, 2021:

- Updated Glossary, including Speed of Maximum Gust, and Total Hourly Precipitation

- Updated national and regional climate services offices contacts and prices information

- Addition of station inventory lists for 1981-2010, 1971-2000, and 1961-1990 Normals.

If you haven't already, please take our survey and provide feedback about our website: https://eccc.sondage-survey.ca/f/LanguageSelection.aspx?s=442ca660-fcf1-47c0-95a9-59707d6fd709

Hourly Data Report for January 15, 2005

SHERBROOKE A
QUEBEC

45°26'00.000" N
71°41'00.000" W
241.40 m
7028124
71610
YSC

Download Data

Hourly Data (January 2005)
Hourly Data Report for January 15, 2005
TIME
LST
Temp Definition
°C
Dew Point Definition
°C
Rel Hum Definition
%
Precip. Amount Definition
mm

Wind Dir Definition
10's deg

Wind Spd Definition
km/h
Visibility Definition
km
Stn Press Definition
kPa
Hmdx Definition


Wind Chill Definition


Weather Definition


00:00 -11.0 -14.5 75   26 7 15.0 100.14   -15  
01:00 -11.4 -15.1 74   30 9 15.0 100.21   -17  
02:00 -12.4 -15.0 81   30 7 15.0 100.35   -17  
03:00 -11.6 -14.2 81   28 9 12.9 100.41   -17 Snow
04:00 -12.5 -16.9 70   29 15 15.0 100.48   -20  
05:00 -13.0 -16.4 76   30 17 15.0 100.52   -21  
06:00 -14.8 -17.2 82     0 15.0 100.65      
07:00 -15.5 -17.6 84     0 15.0 100.62      
08:00 -15.1 -16.9 86     0 24.1 100.69     Mainly Clear
09:00 -12.9 -16.1 77     0 24.1 100.73     Mainly Clear
10:00 -11.1 -16.1 67   23 11 24.1 100.78   -17 Mainly Clear
11:00 -10.3 -16.8 59   26 7 24.1 100.74   -14 Mainly Clear
12:00 -9.3 -16.8 54   21 13 24.1 100.69   -15 Mainly Clear
13:00 -9.0 -15.3 60   19 13 24.1 100.66   -15 Mostly Cloudy
14:00 -8.6 -14.3 63   21 11 24.1 100.62   -14 Mostly Cloudy
15:00 -8.4 -14.2 63   26 11 24.1 100.61   -14 Mostly Cloudy
16:00 -8.2 -14.4 61   23 6 24.1 100.59   -11 Mostly Cloudy
17:00 -9.3 -14.7 65   21 7 24.1 100.59   -13 Mostly Cloudy
18:00 -9.2 -14.1 68   20 9 15.0 100.63   -14  
19:00 -10.1 -14.0 73   20 4 15.0 100.67   -12  
20:00 -10.3 -13.9 75   21 6 15.0 100.71   -14  
21:00 -11.2 -13.9 80   9 4 15.0 100.75   -14  
22:00 -10.6 -13.5 79   20 7 15.0 100.78   -15  
23:00 -9.3 -12.9 75   23 6 15.0 100.77   -13  

Notes on Data Quality.

Legend

  • E = Estimated
  • M = Missing
  • NA = Not Available*
  • [empty] = Indicates an unobserved value
Date modified: